| time (UTC) | temp F | wind direction | speed MPH | gust MPH | rain 1hr in | rain 24hr in | rain mn in | humidity % | barometer mb |
| 20260904030045 | 70 | 22 | 0.0 | 0.0 | 0.00 | 0.00 | 0.00 | 100 | 1012.5 |
| 20260904024541 | 70 | 22 | 0.0 | 0.0 | 0.00 | 0.00 | 0.00 | 100 | 1012.7 |
| 20260904023038 | 71 | 22 | 0.0 | 0.0 | 0.00 | 0.00 | 0.00 | 100 | 1012.7 |
| 20260904021532 | 71 | 22 | 0.0 | 2.0 | 0.00 | 0.00 | 0.00 | 100 | 1013.0 |
| 20260904020027 | 71 | 22 | 0.0 | 0.0 | 0.00 | 0.00 | 0.00 | 100 | 1013.1 |
| 20260904014523 | 71 | 22 | 0.0 | 1.0 | 0.00 | 0.00 | 0.00 | 100 | 1013.0 |
| 20260904013019 | 71 | 22 | 0.0 | 0.0 | 0.00 | 0.00 | 0.00 | 100 | 1013.1 |
| 20260904011515 | 72 | 22 | 0.0 | 0.0 | 0.00 | 0.00 | 0.00 | 100 | 1013.0 |
| 20260904010010 | 72 | 22 | 0.0 | 0.0 | 0.00 | 0.00 | 0.00 | 100 | 1012.8 |
| 20260904004506 | 72 | 22 | 0.0 | 0.0 | 0.00 | 0.00 | 0.00 | 100 | 1012.9 |
| 20260904003002 | 73 | 22 | 0.0 | 0.0 | 0.00 | 0.00 | 0.00 | 100 | 1012.9 |
| 20260904001559 | 73 | 22 | 0.0 | 0.0 | 0.00 | 0.00 | 0.00 | 100 | 1012.8 |
| 20260904000053 | 74 | 22 | 0.0 | 0.0 | 0.00 | 0.00 | 0.00 | 100 | 1012.7 |
| 20260903234548 | 74 | 22 | 0.0 | 0.0 | 0.00 | 0.00 | 0.00 | 100 | 1012.8 |
| 20260903233049 | 75 | 22 | 0.0 | 0.0 | 0.00 | 0.00 | 0.00 | 100 | 1012.4 |
| 20260903231540 | 76 | 22 | 0.0 | 0.0 | 0.00 | 0.00 | 0.00 | 100 | 1012.3 |
| 20260903230044 | 77 | 22 | 0.0 | 0.0 | 0.00 | 0.00 | 0.00 | 100 | 1012.3 |
| 20260903224531 | 78 | 22 | 0.0 | 0.0 | 0.00 | 0.00 | 0.00 | 100 | 1012.3 |
| 20260903223028 | 79 | 22 | 0.0 | 0.0 | 0.00 | 0.00 | 0.00 | 2 | 1012.2 |
| 20260903221523 | 80 | 22 | 0.0 | 0.0 | 0.00 | 0.00 | 0.00 | 18 | 1012.0 |
| 20260903220018 | 79 | 22 | 0.0 | 1.0 | 0.00 | 0.00 | 0.00 | 26 | 1011.9 |
| 20260903214514 | 80 | 23 | 0.0 | 1.0 | 0.00 | 0.00 | 0.00 | 31 | 1012.2 |
| 20260903213009 | 80 | 24 | 0.0 | 5.0 | 0.00 | 0.00 | 0.00 | 40 | 1012.0 |
| 20260903211505 | 80 | 297 | 0.0 | 3.0 | 0.00 | 0.00 | 0.00 | 33 | 1012.0 |
| 20260903210114 | 80 | 286 | 0.0 | 0.0 | 0.00 | 0.00 | 0.00 | 33 | 1011.9 |
| 20260903204557 | 81 | 272 | 0.0 | 1.0 | 0.00 | 0.00 | 0.00 | 39 | 1012.0 |
| 20260903203052 | 81 | 272 | 0.0 | 2.0 | 0.00 | 0.00 | 0.00 | 47 | 1011.9 |
| 20260903201548 | 82 | 323 | 0.0 | 4.0 | 0.00 | 0.00 | 0.00 | 52 | 1011.9 |
| 20260903200043 | 83 | 140 | 0.0 | 5.0 | 0.00 | 0.00 | 0.00 | 55 | 1012.1 |
| 20260903194538 | 82 | 190 | 0.0 | 5.0 | 0.00 | 0.00 | 0.00 | 54 | 1012.0 |
| 20260903193034 | 82 | 167 | 1.0 | 5.0 | 0.00 | 0.00 | 0.00 | 48 | 1012.1 |
| 20260903191545 | 80 | 113 | 0.0 | 2.0 | 0.00 | 0.00 | 0.00 | 9 | 1012.3 |
| 20260903190025 | 79 | 35 | 0.0 | 6.0 | 0.00 | 0.00 | 0.00 | 14 | 1012.5 |
| 20260903184523 | 79 | 142 | 0.0 | 3.0 | 0.00 | 0.00 | 0.00 | 14 | 1012.6 |
| 20260903183016 | 80 | 77 | 0.0 | 0.0 | 0.00 | 0.00 | 0.00 | 24 | 1012.8 |
| 20260903181512 | 82 | 100 | 0.0 | 2.0 | 0.00 | 0.00 | 0.00 | 23 | 1012.8 |
| 20260903180008 | 80 | 110 | 0.0 | 2.0 | 0.00 | 0.00 | 0.00 | 5 | 1012.9 |
| 20260903174503 | 79 | 88 | 0.0 | 3.0 | 0.00 | 0.00 | 0.00 | 6 | 1013.0 |
| 20260903173100 | 79 | 143 | 0.0 | 0.0 | 0.00 | 0.00 | 0.00 | 100 | 1013.2 |
| 20260903171559 | 79 | 143 | 0.0 | 1.0 | 0.00 | 0.00 | 0.00 | 100 | 1013.3 |
| 20260903170053 | 79 | 144 | 0.0 | 0.0 | 0.00 | 0.00 | 0.00 | 100 | 1013.4 |
| 20260903164545 | 78 | 144 | 0.0 | 1.0 | 0.00 | 0.00 | 0.00 | 100 | 1013.7 |
| 20260903163044 | 78 | 144 | 0.0 | 2.0 | 0.00 | 0.00 | 0.00 | 100 | 1013.9 |
| 20260903161547 | 77 | 144 | 0.0 | 1.0 | 0.00 | 0.00 | 0.00 | 100 | 1013.9 |
| 20260903160031 | 75 | 145 | 0.0 | 2.0 | 0.00 | 0.00 | 0.00 | 100 | 1013.9 |
| 20260903154528 | 74 | 145 | 0.0 | 4.0 | 0.00 | 0.00 | 0.00 | 100 | 1014.2 |
| 20260903153023 | 73 | 143 | 0.0 | 3.0 | 0.00 | 0.00 | 0.00 | 100 | 1014.2 |
| 20260903151519 | 72 | 125 | 0.0 | 1.0 | 0.00 | 0.00 | 0.00 | 100 | 1014.1 |
| 20260903150019 | 71 | 125 | 0.0 | 3.0 | 0.00 | 0.00 | 0.00 | 100 | 1014.0 |
| 20260903144510 | 69 | 162 | 0.0 | 0.0 | 0.00 | 0.00 | 0.00 | 100 | 1014.1 |
| 20260903143008 | 69 | 162 | 0.0 | 1.0 | 0.00 | 0.00 | 0.00 | 100 | 1014.3 |
| 20260903141503 | 68 | 162 | 0.0 | 0.0 | 0.00 | 0.00 | 0.00 | 100 | 1014.4 |
| 20260903140058 | 68 | 162 | 0.0 | 0.0 | 0.00 | 0.00 | 0.00 | 100 | 1014.3 |
| 20260903134553 | 68 | 162 | 0.0 | 0.0 | 0.00 | 0.00 | 0.00 | 100 | 1014.3 |
| 20260903133053 | 67 | 162 | 0.0 | 0.0 | 0.00 | 0.00 | 0.00 | 100 | 1014.1 |
| 20260903131603 | 67 | 162 | 0.0 | 0.0 | 0.00 | 0.00 | 0.00 | 100 | 1014.3 |
| 20260903130039 | 66 | 162 | 0.0 | 0.0 | 0.00 | 0.00 | 0.00 | 100 | 1014.1 |
| 20260903124539 | 0 | 0.0 | 0.0 | 0.00 | 0.00 | 0.00 | 1014.4 | ||
| 20260903123038 | 0 | 0.0 | 0.0 | 0.00 | 0.00 | 0.00 | 1014.6 | ||
| 20260903121533 | 0 | 0.0 | 0.0 | 0.00 | 0.00 | 0.00 | 1014.6 | ||
| 20260903120022 | 0 | 0.0 | 0.0 | 0.00 | 0.00 | 0.00 | 1014.6 | ||
| 20260903114518 | 0 | 0.0 | 0.0 | 0.00 | 0.00 | 0.00 | 1014.8 | ||
| 20260903113031 | 0 | 0.0 | 0.0 | 0.00 | 0.00 | 0.00 | 1014.7 | ||
| 20260903111512 | 0 | 0.0 | 0.0 | 0.00 | 0.00 | 0.00 | 1014.7 | ||
| 20260903110005 | 0 | 0.0 | 0.0 | 0.00 | 0.00 | 0.00 | 1014.8 | ||
| 20260903104601 | 0 | 0.0 | 0.0 | 0.00 | 0.00 | 0.00 | 1014.9 | ||
| 20260903103058 | 0 | 0.0 | 0.0 | 0.00 | 0.00 | 0.00 | 1014.8 | ||
| 20260903101557 | 65 | 162 | 0.0 | 0.0 | 0.00 | 0.00 | 0.00 | 100 | 1014.7 |
| 20260903100045 | 65 | 162 | 0.0 | 0.0 | 0.00 | 0.00 | 0.00 | 100 | 1014.7 |
| 20260903094540 | 65 | 162 | 0.0 | 0.0 | 0.00 | 0.00 | 0.00 | 100 | 1014.6 |
| 20260903093041 | 65 | 162 | 0.0 | 0.0 | 0.00 | 0.00 | 0.00 | 100 | 1014.3 |
| 20260903091534 | 65 | 162 | 0.0 | 0.0 | 0.00 | 0.00 | 0.00 | 100 | 1014.5 |
| 20260903090027 | 65 | 162 | 0.0 | 0.0 | 0.00 | 0.00 | 0.00 | 100 | 1014.6 |
| 20260903084525 | 65 | 162 | 0.0 | 0.0 | 0.00 | 0.00 | 0.00 | 100 | 1014.5 |
| 20260903083017 | 65 | 162 | 0.0 | 0.0 | 0.00 | 0.00 | 0.00 | 100 | 1014.5 |
| 20260903081515 | 65 | 162 | 0.0 | 0.0 | 0.00 | 0.00 | 0.00 | 100 | 1014.5 |
| 20260903080011 | 65 | 162 | 0.0 | 0.0 | 0.00 | 0.00 | 0.00 | 100 | 1014.5 |
| 20260903074504 | 65 | 162 | 0.0 | 0.0 | 0.00 | 0.00 | 0.00 | 100 | 1014.4 |
| 20260903073001 | 65 | 162 | 0.0 | 0.0 | 0.00 | 0.00 | 0.00 | 100 | 1014.3 |
| 20260903071558 | 65 | 162 | 0.0 | 0.0 | 0.00 | 0.00 | 0.00 | 100 | 1014.0 |
| 20260903070004 | 65 | 162 | 0.0 | 1.0 | 0.00 | 0.00 | 0.00 | 100 | 1014.2 |
| 20260903064600 | 65 | 162 | 0.0 | 0.0 | 0.00 | 0.00 | 0.00 | 100 | 1014.1 |
| 20260903063055 | 65 | 162 | 0.0 | 1.0 | 0.00 | 0.00 | 0.00 | 100 | 1014.1 |
| 20260903061557 | 65 | 162 | 0.0 | 5.0 | 0.00 | 0.00 | 0.00 | 100 | 1014.0 |
| 20260903060046 | 65 | 179 | 0.0 | 4.0 | 0.00 | 0.00 | 0.00 | 100 | 1014.2 |
| 20260903054542 | 65 | 130 | 1.0 | 6.0 | 0.00 | 0.00 | 0.00 | 100 | 1014.5 |
| 20260903053038 | 65 | 169 | 0.0 | 3.0 | 0.00 | 0.00 | 0.00 | 100 | 1015.1 |
| 20260903051533 | 65 | 125 | 0.0 | 7.0 | 0.00 | 0.00 | 0.00 | 100 | 1015.6 |
| 20260903050029 | 65 | 192 | 0.0 | 2.0 | 0.00 | 0.00 | 0.00 | 100 | 1015.4 |
| 20260903044524 | 65 | 314 | 0.0 | 2.0 | 0.00 | 0.00 | 0.00 | 100 | 1015.9 |
| 20260903043024 | 65 | 110 | 0.0 | 2.0 | 0.00 | 0.00 | 0.00 | 100 | 1014.5 |
| 20260903041517 | 65 | 69 | 0.0 | 3.0 | 0.00 | 0.00 | 0.00 | 100 | 1015.9 |
| 20260903040011 | 66 | 111 | 0.0 | 3.0 | 0.00 | 0.00 | 0.00 | 100 | 1016.6 |
| 20260903034507 | 66 | 169 | 0.0 | 0.0 | 0.00 | 0.00 | 0.00 | 100 | 1016.9 |
| 20260903033002 | 67 | 169 | 0.0 | 5.0 | 0.00 | 0.00 | 0.00 | 100 | 1017.2 |
| 20260903031559 | 67 | 255 | 0.0 | 8.0 | 0.00 | 0.00 | 0.00 | 100 | 1016.6 |